Ann Arbor, MI

4:47 AM EST on November 23, 2017 (GMT -0500)
Ann Arbor Municipal

Weather History for KARB - January, 2012

Change the Weather History Date:

Monday, January 23, 2012

  Actual Average Record
Temperature  
Mean Temperature 40 °F -  
Max Temperature 48 °F 26 °F 48 °F (2012)
Min Temperature 30 °F 8 °F -11 °F (2005)
Degree Days  
Heating Degree Days 25    
Moisture  
Dew Point 38 °F    
Average Humidity 94    
Maximum Humidity 100    
Minimum Humidity 72    
Precipitation  
Precipitation 0.37 in - - ()
Sea Level Pressure  
Sea Level Pressure 29.61 in    
Wind  
Wind Speed 10 mph (South)    
Max Wind Speed 30 mph    
Max Gust Speed 91 mph    
Visibility 7 miles    
Events Rain    
Averages and records for this station are not official NWS values.
T = Trace of Precipitation, MM = Missing Value Source: NWS Daily Summary

Daily Weather History Graph

Daily Weather History Graph

Search for Another Location

Airport or City:

Trip Planner

Search our weather history database for the weather conditions in past years. The results will help you decide how hot, cold, wet, or windy it might be!

Date:

Astronomy

Jan. 23, 2012 Rise Set
Actual Time 7:56 AM EST 5:37 PM EST
Civil Twilight 7:26 AM EST 6:07 PM EST
Nautical Twilight 6:52 AM EST 6:41 PM EST
Astronomical Twilight 6:18 AM EST 7:15 PM EST
Moon 7:50 AM EST 6:25 PM EST
Length of Visible Light 10h 41m
Length of Day
9h 40m
New Moon, 0% of the Moon is Illuminated
Jan 23
New Moon
Jan 30
First Quarter
Feb 7
Full
Feb 14
Last Quarter
Feb 21
New

Hourly Weather History & Observations

Time (EST) Temp. Windchill Dew Point Humidity Pressure Visibility Wind Dir Wind Speed Gust Speed Precip Events Conditions
12:09 AM 35.6 °F 31.7 °F 35.6 °F 100% 29.78 in 1.5 mi ESE 4.6 mph - N/A   Overcast
12:34 AM 35.6 °F 30.7 °F 35.6 °F 100% 29.76 in 2.0 mi ESE 5.8 mph - N/A   Overcast
12:53 AM 36.0 °F 31.1 °F 36.0 °F 100% 29.78 in 2.5 mi ESE 5.8 mph - N/A   Overcast
1:02 AM 35.6 °F 30.7 °F 35.6 °F 100% 29.75 in 3.0 mi SE 5.8 mph - N/A   Overcast
1:27 AM 35.6 °F 29.2 °F 35.6 °F 100% 29.72 in 2.0 mi ESE 8.1 mph - N/A   Overcast
1:33 AM 37.4 °F 31.4 °F 35.6 °F 93% 29.72 in 3.0 mi ESE 8.1 mph - N/A   Overcast
1:44 AM 37.4 °F 32.1 °F 35.6 °F 93% 29.71 in 4.0 mi SE 6.9 mph - N/A   Overcast
1:53 AM 37.0 °F 31.6 °F 37.0 °F 100% 29.73 in 4.0 mi ESE 6.9 mph - N/A   Overcast
2:22 AM 37.4 °F 32.1 °F 37.4 °F 100% 29.68 in 2.5 mi ESE 6.9 mph - N/A   Overcast
2:33 AM 37.4 °F 31.4 °F 37.4 °F 100% 29.67 in 4.0 mi ESE 8.1 mph - N/A   Overcast
2:45 AM 37.4 °F 32.1 °F 37.4 °F 100% 29.66 in 5.0 mi ESE 6.9 mph - N/A   Overcast
2:53 AM 37.0 °F 31.6 °F 37.0 °F 100% 29.67 in 5.0 mi ESE 6.9 mph - N/A   Overcast
3:39 AM 37.4 °F 30.8 °F 37.4 °F 100% 29.61 in 7.0 mi ESE 9.2 mph - 0.00 in   Overcast
3:53 AM 39.0 °F 32.8 °F 37.9 °F 96% 29.63 in 8.0 mi SE 9.2 mph - 0.00 in   Overcast
4:26 AM 39.2 °F 35.0 °F 39.2 °F 100% 29.59 in 4.0 mi SSE 5.8 mph - 0.07 in Rain Rain
4:45 AM 39.2 °F 33.0 °F 39.2 °F 100% 29.61 in 2.5 mi SSE 9.2 mph - 0.16 in Rain Heavy Rain
4:53 AM 39.9 °F 33.9 °F 39.9 °F 100% 29.65 in 2.0 mi South 9.2 mph - 0.23 in Rain Heavy Rain
5:15 AM 42.8 °F 37.5 °F 42.8 °F 100% 29.62 in 3.0 mi South 9.2 mph - 0.09 in Rain Rain
5:33 AM 42.8 °F 38.6 °F 42.8 °F 100% 29.60 in 7.0 mi South 6.9 mph 21.9 mph 0.10 in   Overcast
5:53 AM 43.0 °F 38.8 °F 43.0 °F 100% 29.60 in 6.0 mi South 6.9 mph - 0.10 in Rain Light Rain
6:01 AM 44.6 °F 41.4 °F 44.6 °F 100% 29.57 in 8.0 mi South 5.8 mph - 0.00 in Rain Light Rain
6:53 AM 46.0 °F 41.0 °F 46.0 °F 100% 29.54 in 10.0 mi South 10.4 mph 18.4 mph 0.01 in   Overcast
7:49 AM 44.6 °F 41.4 °F 42.8 °F 93% 29.53 in 8.0 mi South 5.8 mph - N/A   Scattered Clouds
7:53 AM 44.1 °F 41.5 °F 43.0 °F 96% 29.55 in 8.0 mi South 4.6 mph - N/A   Partly Cloudy
8:39 AM 42.8 °F 41.1 °F 42.8 °F 100% 29.52 in 3.0 mi SSE 3.5 mph - N/A   Mostly Cloudy
8:50 AM 42.8 °F - 42.8 °F 100% 29.52 in 4.0 mi Calm Calm - N/A   Scattered Clouds
9:22 AM 44.6 °F 40.7 °F 42.8 °F 93% 29.52 in 6.0 mi South 6.9 mph - N/A   Mostly Cloudy
9:53 AM 46.0 °F 41.4 °F 44.1 °F 93% 29.53 in 10.0 mi South 9.2 mph - N/A   Overcast
10:13 AM 46.4 °F 42.4 °F 44.6 °F 93% 29.52 in 10.0 mi SSW 8.1 mph - N/A   Overcast
10:53 AM 46.0 °F 41.4 °F 44.1 °F 93% 29.52 in 10.0 mi South 9.2 mph - N/A   Overcast
12:29 PM 48.2 °F - 46.4 °F 93% 29.45 in 8.0 mi SSW 10.4 mph - N/A   Overcast
12:53 PM 48.0 °F - 46.0 °F 93% 29.45 in 7.0 mi SSW 11.5 mph - 0.03 in Rain Light Rain
1:53 PM 48.9 °F - 46.9 °F 93% 29.45 in 10.0 mi SSW 17.3 mph 25.3 mph 0.00 in   Overcast
2:02 PM 48.2 °F - 46.4 °F 93% 29.44 in 10.0 mi SW 17.3 mph 26.5 mph N/A   Overcast
2:34 PM 48.2 °F - - N/A% 29.44 in 10.0 mi SW 20.7 mph 31.1 mph N/A   Overcast
2:41 PM 48.2 °F - - N/A% 29.44 in 10.0 mi SW 20.7 mph 27.6 mph N/A   Overcast
2:53 PM 46.9 °F - - N/A% 29.47 in 10.0 mi SW 23.0 mph 31.1 mph N/A   Overcast
3:23 PM 44.6 °F 35.5 °F - N/A% 29.48 in 10.0 mi WSW 25.3 mph 29.9 mph N/A   Overcast
3:49 PM 39.2 °F 28.0 °F - N/A% 29.50 in 10.0 mi SW 26.5 mph 40.3 mph N/A   Overcast
3:53 PM 39.0 °F 28.3 °F - N/A% 29.52 in 10.0 mi SW 24.2 mph 38.0 mph N/A   Overcast
4:34 PM 37.4 °F 26.9 °F 37.4 °F 100% 29.54 in 10.0 mi WSW 20.7 mph 33.4 mph N/A   Overcast
4:53 PM 37.0 °F 27.0 °F 36.0 °F 96% 29.57 in 10.0 mi SW 18.4 mph 31.1 mph N/A   Overcast
5:53 PM 36.0 °F 24.2 °F 30.9 °F 82% 29.61 in 10.0 mi SW 24.2 mph 34.5 mph N/A   Overcast
6:53 PM 35.1 °F 23.0 °F 30.9 °F 85% 29.66 in 10.0 mi WSW 24.2 mph 90.9 mph N/A   Overcast
7:53 PM 34.0 °F 20.3 °F 28.9 °F 82% 29.70 in 10.0 mi WSW 29.9 mph 36.8 mph N/A   Overcast
8:53 PM 33.1 °F 20.1 °F 27.0 °F 78% 29.75 in 10.0 mi WSW 25.3 mph 36.8 mph N/A   Overcast
9:53 PM 33.1 °F 21.2 °F 27.0 °F 78% 29.78 in 10.0 mi WSW 20.7 mph 27.6 mph N/A   Overcast
10:53 PM 32.0 °F 18.1 °F 24.1 °F 73% 29.81 in 10.0 mi West 27.6 mph 35.7 mph N/A   Overcast
11:53 PM 30.9 °F - 23.0 °F 72% 29.83 in 10.0 mi North - - N/A   Overcast